Location: Newark
(46.9000°N, 28.3500°E)
Time: 04:58:14
(UTC+00:00)

Explorer 7 - Pass Details

Date: 03 September 2019
Orbit: 485 x 680 km, 50.3° (Epoch: 18 September)

Event Time Altitude Azimuth Distance (km) Brightness Sun altitude
Rises 03:47:10 0° 236° (WSW) 3,016 10.0 2.4°
Reaches altitude 10° 03:49:31 10° 234° (SW) 2,111 9.3 2.8°
Maximum altitude 03:54:24 69° 152° (SSE) 726 7.6 3.6°
Drops below altitude 10° 03:59:15 10° 70° (ENE) 2,098 11.8 4.4°
Sets 04:01:35 0° 68° (ENE) 2,996 12.4 4.8°
